Overview Statistics Trail Chart Weather Telemetry Raw packets
 

This is the latest recevied weather packets stored in our database for station/object K9COE-11. If no packets are shown the sender has not sent any weather packets the latest 10 day(s).

<< 18 19 20 21 22 23 24 >>
Time Temp. Humidity Pressure Rain* Wind** Luminosity Snow
1788625570 22.78° C 50% - 0 mm - - -
1788625438 22.78° C 53% - 0 mm - - -
1788625300 22.78° C 53% - 0 mm - - -
1788624897 22.22° C 54% - 0 mm - - -
1788624759 21.67° C 54% - 0 mm - - -
1788624627 21.11° C 56% - 0 mm - - -
1788624489 21.11° C 57% - 0 mm - - -
1788624351 21.11° C 57% - 0 mm - - -
1788624086 21.11° C 60% - 0 mm - - -
1788623948 21.11° C 62% - 0 mm - - -
1788623810 20.56° C 63% - 0 mm - - -
1788623672 20.56° C 63% - 0 mm - - -
1788623533 20.56° C 64% - 0 mm - - -
1788623401 20.56° C 64% - 0 mm - - -
1788623269 20.56° C 64% - 0 mm - - -
1788623131 20.56° C 64% - 0 mm - - -
1788622999 20.56° C 65% - 0 mm - - -
1788622861 20.56° C 65% - 0 mm - - -
1788622308 20.56° C 68% - 0 mm - - -
1788622172 20° C 67% - 0 mm - - -
1788622164 20° C 67% - 0 mm - - -
1788622025 20° C 69% - 0 mm - - -
1788621743 19.44° C 72% - 0 mm - - -
1788621467 19.44° C 75% - 0 mm - - -
1788621184 18.33° C 79% - 0 mm - - -

* Rain latest 24 hours (hover to see other rain measurements)
** Current wind speed in m/s (hover to see current wind gust speed)